Temp
63 63 64 63 64 64 66 66 66 64 63 64 63 63 61 61 58 55 55 56 57 64 67 64 67 68 66 64 64 63 62 60 61 60 59 58 58 56 56 56 58 57 55 54 55 56 57 57 58 59 61 62 62 61 60 59 58 59 62 62 61 57 57 57 57 60 62 61 58 56 56 56 56 56
62 63 63 64 64 65 66 65 64 64 63 63 63 62 62 61 59 59 56 55 59 62 67 68 64 65 65 65 64 63 62 59 62 62 60 58 58 55 55 55 57 56 54 54 53 54 56 57 59 60 61 62 61 60 58 58 58 61 64 63 62 59 58 59 61 61 60 58 56 56 56 56 56 57
63 63 63 63 63 65 65 64 64 64 64 63 63 62 62 61 61 60 59 56 58 65 62 65 67 66 65 66 65 65 63 62 63 62 60 60 56 56 56 55 55 55 55 53 55 58 58 56 58 60 61 62 60 59 60 60 61 64 63 59 58 59 59 59 60 61 60 59 58 57 57 57 57 57
63 64 63 63 63 64 64 64 64 64 64 64 63 63 62 61 62 61 59 58 59 62 61 64 66 67 65 66 65 63 64 63 61 62 61 58 56 57 56 55 54 55 54 55 59 62 60 59 59 60 61 61 60 61 61 61 62 61 57 55 56 58 57 58 58 61 60 59 59 58 57 57 57 56
63 63 64 63 64 64 64 63 64 63 65 64 63 64 62 61 62 62 60 58 57 58 62 65 65 67 67 65 65 63 62 62 61 62 60 58 58 58 57 56 53 53 54 54 55 55 55 58 62 60 59 60 60 58 58 57 56 57 56 53 54 54 56 56 56 58 59 59 58 56 57 57 56 56
64 63 63 63 63 64 64 64 65 65 66 65 63 64 64 62 62 64 61 59 57 58 61 64 67 66 68 64 66 63 61 61 60 61 60 60 60 59 57 55 54 53 54 53 54 54 54 54 57 55 54 54 54 54 54 54 54 55 52 50 52 55 57 57 55 54 59 59 58 57 57 56 55 55
64 63 62 62 63 64 64 64 65 65 65 65 63 61 62 62 61 62 63 61 59 60 61 64 65 65 67 64 64 64 64 63 62 60 60 61 63 62 58 57 57 51 52 52 53 53 53 53 54 53 53 53 52 52 52 52 52 51 50 48 52 53 54 54 53 52 57 59 57 57 56 55 55 56
63 63 62 62 62 63 63 63 62 62 61 60 61 62 61 61 61 61 61 62 63 61 61 63 66 66 63 63 66 66 65 62 61 61 61 63 63 62 61 59 58 53 51 52 53 53 53 53 53 52 52 52 51 51 52 51 51 50 49 49 50 50 50 50 50 50 51 56 59 58 56 55 56 57
63 62 62 62 62 62 62 61 60 61 61 61 61 60 61 61 61 62 60 61 62 62 61 62 65 64 64 65 65 65 63 61 62 63 61 62 62 61 61 62 62 53 51 52 53 52 52 52 52 52 52 51 51 50 51 50 50 49 49 48 49 49 49 48 49 48 49 49 50 57 59 55 57 58
63 62 62 63 63 62 61 60 61 61 61 61 60 60 60 61 60 59 59 60 59 59 61 63 61 62 62 61 62 65 65 62 60 60 61 62 62 60 58 60 61 57 55 54 54 51 51 52 52 51 51 51 50 50 50 49 49 49 48 48 48 48 48 48 47 47 47 47 47 47 50 53 56 58
62 63 63 62 63 62 62 61 61 60 60 60 60 60 61 61 59 58 59 59 60 59 58 59 61 61 62 62 59 64 66 65 62 59 57 57 60 59 59 56 57 57 55 54 53 53 53 53 52 51 51 50 50 49 48 48 49 48 47 47 47 47 47 47 47 47 46 46 45 45 45 48 52 56
62 63 62 61 62 63 62 61 61 61 60 60 60 60 60 60 59 59 58 58 58 58 58 59 59 58 58 59 62 66 62 60 58 60 58 55 54 56 57 57 55 55 55 54 54 54 53 52 51 50 49 49 48 48 49 50 50 49 47 46 46 46 46 46 46 46 46 46 46 45 45 45 45 50
62 62 62 62 61 63 63 59 60 60 60 61 59 59 59 60 59 59 58 58 58 59 59 59 60 58 59 59 59 58 56 57 59 58 60 56 56 57 56 56 57 58 55 55 54 55 53 52 52 51 50 49 49 50 50 50 50 47 46 45 45 45 45 45 45 46 46 46 46 45 45 45 45 44
61 62 62 63 63 61 59 56 55 53 54 58 60 60 60 59 59 58 59 59 59 60 59 61 59 57 57 57 60 59 59 62 58 58 58 55 54 55 55 55 55 57 57 55 53 56 56 54 52 53 51 52 51 50 49 48 48 47 46 46 46 46 45 45 45 45 45 45 45 45 44 44 44 43
59 59 59 58 60 59 58 56 51 50 51 51 52 54 56 59 61 60 58 59 60 60 60 60 59 59 58 58 60 61 61 59 59 60 59 56 55 54 52 50 54 56 57 54 53 52 55 57 53 51 51 51 49 49 47 47 47 47 46 46 46 46 45 45 45 45 45 45 44 44 44 44 45 44
59 58 58 58 59 58 57 54 52 47 45 46 46 48 48 51 52 53 58 59 59 59 58 59 59 60 60 57 58 60 57 57 57 58 57 56 56 54 53 52 53 56 59 55 52 51 53 53 51 49 50 50 50 50 47 47 47 47 47 46 46 46 45 45 45 44 44 44 43 43 43 44 43 43
59 58 58 59 59 59 58 56 53 52 51 48 47 47 47 47 44 44 49 53 60 60 60 59 57 57 56 56 55 56 55 56 58 55 55 54 55 55 53 50 51 55 58 56 52 50 49 50 48 47 47 48 48 47 47 47 47 47 47 46 46 45 45 45 44 44 44 43 43 43 43 42 42 42
60 59 59 58 57 58 57 56 57 58 57 56 56 55 54 53 52 48 47 47 49 55 58 57 54 54 56 55 55 57 57 60 57 56 55 56 55 55 55 56 55 56 59 56 53 50 49 50 48 46 47 48 47 48 48 47 47 47 46 46 46 45 45 45 44 44 44 43 43 43 43 42 42 42
54 58 59 58 57 58 58 58 59 59 57 55 54 54 52 51 51 50 52 56 57 55 55 53 53 53 54 53 54 56 59 60 60 59 58 58 57 56 55 54 54 53 55 57 54 49 49 50 47 47 48 49 48 48 46 47 47 46 46 46 46 45 45 45 44 44 44 44 43 43 42 42 41 41
48 50 52 53 54 54 55 53 49 53 56 55 55 53 53 52 50 49 47 46 49 52 53 52 51 49 47 46 48 50 55 58 58 58 58 58 56 55 53 52 51 50 52 53 53 50 49 50 48 48 50 49 47 48 48 46 47 47 46 46 45 45 45 45 44 44 44 43 43 43 42 41 41 40
47 48 49 49 49 48 48 44 44 48 52 55 55 54 53 53 52 50 49 45 44 44 43 43 43 44 44 45 45 45 45 52 57 59 57 54 55 54 51 49 48 49 49 50 52 53 49 50 49 48 49 48 47 47 47 47 46 46 46 46 46 45 45 45 44 44 44 44 44 43 43 42 41 42
46 46 48 49 46 45 45 42 43 46 53 54 54 54 54 53 51 51 53 52 48 45 45 45 45 45 46 47 47 46 46 47 51 57 55 54 54 53 52 49 48 49 49 51 51 53 50 51 50 48 49 48 48 47 46 46 46 46 45 45 45 45 45 45 45 44 44 44 44 44 43 42 42 40
45 45 45 45 44 44 43 41 41 43 52 57 56 55 54 52 52 52 53 54 54 54 54 54 55 53 52 54 54 52 47 48 51 53 52 51 55 53 51 50 49 49 49 51 52 50 49 49 49 49 46 45 47 48 46 45 45 45 45 45 45 45 45 45 45 45 44 44 44 43 43 42 42 41
44 44 44 43 41 41 41 41 41 42 44 50 52 54 54 53 52 53 54 55 56 55 54 53 53 53 53 54 54 53 53 53 53 51 51 50 53 53 51 51 50 48 48 51 50 51 51 52 49 52 51 45 41 46 46 46 45 45 45 45 44 44 44 44 43 44 44 44 43 43 42 43 43 41
43 43 43 43 41 41 41 41 41 42 42 44 47 47 48 49 50 52 54 53 51 54 53 53 52 52 52 52 53 52 52 52 52 52 51 51 51 53 51 50 49 48 49 52 48 52 49 52 51 51 50 48 46 44 43 45 45 43 45 45 44 43 43 42 42 41 43 43 43 43 42 42 43 42
42 42 42 42 41 41 40 41 42 41 42 42 46 43 42 43 44 51 53 53 54 53 52 52 51 51 51 51 51 51 51 51 52 52 52 52 52 52 52 52 50 48 49 52 48 53 51 50 51 50 50 48 45 45 43 42 45 45 44 45 45 44 43 43 42 41 41 42 41 42 42 43 43 43
42 43 43 43 42 41 41 41 41 42 42 43 42 41 42 43 44 46 49 50 51 50 50 49 49 49 49 49 48 49 50 50 51 51 51 52 52 51 51 52 53 52 51 53 54 53 52 48 48 51 49 49 46 43 44 43 43 45 43 43 44 45 46 45 44 43 41 41 43 44 41 41 41 42
43 42 42 42 41 41 41 41 41 41 42 42 41 42 42 43 44 47 47 47 48 48 47 47 47 48 48 48 48 48 49 49 50 50 51 50 50 50 51 52 52 53 53 53 53 52 52 50 48 49 51 50 47 44 41 41 44 43 42 43 43 44 43 44 44 45 43 41 41 41 41 42 40 39
41 40 40 41 41 41 41 42 42 42 42 41 41 42 43 46 46 45 45 46 46 45 44 45 45 46 47 47 47 49 49 49 50 49 50 50 50 50 51 51 51 51 53 52 52 52 52 51 49 50 50 49 47 45 45 44 42 43 42 43 43 44 43 44 44 41 43 42 41 40 41 40 39 39
41 41 41 41 41 42 42 44 43 43 43 41 42 42 44 45 45 45 45 44 44 43 43 43 44 45 46 47 46 47 49 47 46 46 47 47 48 50 49 50 49 50 50 51 52 52 51 50 50 50 49 48 49 47 46 45 42 43 40 40 43 41 42 41 41 40 40 40 41 40 42 40 40 39
45 43 43 42 41 41 41 42 42 42 42 43 44 44 44 44 44 44 44 44 43 43 43 42 43 44 46 47 46 46 45 45 48 47 46 47 48 48 47 47 46 47 48 49 51 51 51 49 49 50 48 46 46 48 47 46 43 40 39 40 43 37 40 42 43 41 40 40 41 39 40 39 39 40
45 44 42 43 44 44 44 44 44 43 42 42 41 43 43 43 44 44 44 44 43 44 44 44 44 43 44 45 45 44 44 44 45 45 45 46 47 46 48 45 44 45 47 48 49 49 47 50 49 48 47 46 46 44 43 44 43 43 42 41 41 39 41 40 40 41 40 41 40 40 37 40 39 41
42 41 41 40 40 40 38 38 40 41 41 40 41 43 43 42 43 43 42 42 41 41 42 41 40 40 43 43 44 43 44 45 46 46 47 47 48 46 47 46 45 45 45 45 46 47 48 48 48 47 46 45 44 45 46 42 42 43 42 40 41 39 39 39 39 40 40 41 38 38 37 39 40 41
38 36 36 36 36 37 37 37 37 37 38 38 38 38 38 40 41 41 41 41 40 38 38 40 38 39 38 39 42 43 42 43 45 44 44 45 45 45 44 44 44 45 44 45 44 44 47 47 47 46 47 46 46 45 46 44 40 40 40 39 39 38 38 39 39 38 39 39 37 36 35 35 36 38
36 36 36 35 35 35 36 35 35 35 36 36 36 37 37 38 37 38 40 41 38 38 37 37 38 37 38 38 38 39 39 40 42 44 42 43 44 43 43 44 43 43 44 42 43 45 46 45 45 44 43 44 44 46 46 44 42 39 39 38 37 38 38 39 39 39 37 36 35 33 35 36 37 36
36 35 35 35 35 36 36 35 35 36 35 35 35 35 36 37 37 37 38 39 40 38 38 37 37 37 37 37 37 39 38 37 38 39 38 39 39 39 42 42 42 43 43 43 43 44 45 44 44 43 39 35 34 34 38 45 42 40 41 36 38 35 36 35 35 36 36 35 35 34 32 32 35 37
35 36 36 36 36 36 35 35 35 36 36 35 35 35 35 35 36 37 38 38 39 37 37 36 37 37 37 37 37 37 36 37 38 37 37 38 38 40 38 39 38 41 42 42 44 44 45 43 42 40 37 35 36 35 36 38 42 43 43 39 35 37 36 33 36 36 36 36 35 35 34 32 33 35
35 34 35 36 37 36 35 34 36 35 36 35 34 35 35 35 35 36 37 38 36 35 36 37 36 36 36 36 38 38 37 36 36 37 36 36 37 37 37 38 39 41 41 41 42 42 42 42 40 39 39 36 34 34 35 36 33 40 41 41 37 36 33 33 32 33 36 34 37 35 31 33 34 37
38 37 36 36 36 35 35 34 35 35 35 35 34 34 36 35 34 34 35 34 35 36 36 35 35 36 37 37 36 38 38 38 38 37 36 36 38 37 36 38 38 39 39 38 40 41 41 40 39 39 39 37 36 36 34 34 34 38 38 43 39 33 32 33 32 33 33 33 36 32 33 34 36 38
37 37 37 37 37 37 37 37 36 35 35 35 34 34 36 35 34 35 34 35 36 37 37 35 35 36 36 36 36 36 36 37 37 37 37 36 36 37 37 37 37 37 36 36 37 37 39 38 39 38 38 37 36 33 34 35 34 34 35 39 39 39 35 30 30 30 34 34 32 27 30 26 30 29
36 37 36 36 37 37 35 35 34 36 35 35 36 36 35 34 35 34 34 35 36 37 37 37 36 35 35 35 37 37 36 37 36 36 36 36 36 37 37 36 35 35 37 35 36 37 38 41 41 38 39 37 38 40 39 35 34 36 36 38 41 40 40 37 34 32 35 34 29 29 31 32 33 25
36 36 35 35 36 37 35 35 34 35 35 34 33 34 35 34 33 37 35 35 35 35 35 35 35 35 35 34 36 37 36 37 38 38 36 35 36 35 36 36 36 36 37 36 37 39 41 40 36 39 38 35 36 33 31 33 32 33 32 31 32 38 39 39 40 37 35 32 31 34 33 28 26 27
36 35 35 35 34 34 35 34 34 34 34 33 36 34 33 35 34 34 33 34 33 33 33 34 34 35 35 35 34 36 36 36 36 36 37 36 36 36 36 36 35 34 34 36 36 37 38 37 37 35 35 34 32 31 31 31 30 32 34 34 32 31 31 37 41 40 39 39 38 32 29 31 27 29
35 34 33 34 34 34 36 34 33 33 34 35 33 33 34 33 34 33 33 33 33 32 33 33 34 34 34 34 34 36 37 36 36 35 35 34 34 35 35 35 34 34 34 34 35 34 35 36 35 36 37 37 33 31 32 32 32 32 32 32 35 32 38 34 28 33 36 38 39 38 38 38 36 41
35 34 34 34 33 33 32 33 33 34 34 32 33 33 32 33 34 34 33 33 33 33 33 34 36 37 36 36 35 36 36 37 36 34 34 35 34 34 34 35 34 34 35 35 35 36 33 34 36 34 33 34 32 33 34 33 33 32 33 33 35 33 33 35 35 33 30 30 35 37 38 38 37 38
MSLP
1015.46 1015.50 1015.50 1015.58 1015.70 1015.74 1015.78 1015.86 1015.86 1015.98 1016.06 1016.10 1016.38 1016.58 1017.06 1017.58 1018.50 1019.58 1019.94 1019.94 1019.90 1019.58 1019.38 1019.90 1019.58 1019.54 1019.82 1020.14 1020.34 1020.54 1020.78 1020.98 1021.18 1021.46 1021.70 1021.98 1022.22 1022.46 1022.54 1022.62 1022.70 1022.78 1022.90 1022.98 1023.06 1023.18 1023.34 1023.54 1023.66 1023.78 1023.94 1024.10 1024.30 1024.54 1024.74 1024.94 1025.10 1025.22 1025.30 1025.46 1025.62 1025.74 1025.86 1025.94 1026.02 1026.10 1026.26 1026.46 1026.66 1026.82 1026.90 1026.98 1027.02 1027.10
1015.62 1015.62 1015.62 1015.62 1015.66 1015.58 1015.66 1015.70 1015.66 1015.74 1015.86 1016.14 1016.30 1016.50 1016.74 1016.98 1017.74 1018.22 1018.98 1019.50 1019.14 1019.22 1018.98 1019.02 1019.50 1019.58 1019.78 1019.94 1020.30 1020.46 1020.74 1020.94 1021.10 1021.34 1021.58 1021.86 1022.10 1022.30 1022.46 1022.54 1022.66 1022.74 1022.86 1022.98 1023.10 1023.26 1023.42 1023.58 1023.70 1023.82 1023.98 1024.14 1024.34 1024.58 1024.78 1024.98 1025.14 1025.22 1025.30 1025.46 1025.66 1025.82 1025.94 1026.02 1026.06 1026.18 1026.34 1026.50 1026.66 1026.74 1026.86 1026.90 1026.94 1026.98
1015.66 1015.74 1015.66 1015.54 1015.58 1015.46 1015.50 1015.50 1015.58 1015.66 1015.78 1016.06 1016.22 1016.46 1016.66 1016.98 1017.30 1017.62 1018.10 1019.06 1018.82 1018.38 1019.02 1018.86 1018.86 1019.30 1019.58 1019.74 1020.10 1020.46 1020.70 1020.90 1020.98 1021.22 1021.46 1021.70 1021.94 1022.18 1022.38 1022.46 1022.62 1022.74 1022.86 1023.02 1023.14 1023.30 1023.46 1023.62 1023.74 1023.90 1024.06 1024.18 1024.38 1024.58 1024.74 1024.94 1025.10 1025.18 1025.34 1025.54 1025.66 1025.82 1025.94 1026.06 1026.18 1026.30 1026.42 1026.50 1026.62 1026.70 1026.78 1026.86 1026.90 1026.98
1015.58 1015.62 1015.58 1015.42 1015.42 1015.34 1015.34 1015.46 1015.54 1015.66 1015.74 1015.94 1016.10 1016.38 1016.70 1017.02 1017.06 1017.06 1017.66 1018.22 1018.70 1018.34 1018.54 1018.70 1018.90 1018.98 1019.38 1019.62 1020.06 1020.46 1020.70 1020.94 1020.98 1021.18 1021.38 1021.58 1021.86 1022.10 1022.34 1022.50 1022.62 1022.78 1022.90 1023.02 1023.14 1023.30 1023.50 1023.70 1023.82 1023.98 1024.14 1024.30 1024.46 1024.62 1024.78 1024.94 1025.06 1025.22 1025.42 1025.58 1025.70 1025.82 1025.98 1026.10 1026.22 1026.30 1026.42 1026.54 1026.62 1026.74 1026.78 1026.82 1026.90 1026.98
1015.46 1015.38 1015.22 1015.22 1015.18 1015.14 1015.26 1015.30 1015.42 1015.58 1015.70 1016.06 1016.06 1016.18 1016.50 1016.98 1017.10 1017.06 1017.46 1017.98 1018.42 1018.38 1018.26 1018.46 1018.86 1018.94 1019.14 1019.74 1019.78 1020.30 1020.70 1020.98 1021.14 1021.14 1021.38 1021.58 1021.78 1021.98 1022.26 1022.50 1022.66 1022.78 1022.94 1023.10 1023.22 1023.38 1023.58 1023.74 1023.90 1024.06 1024.22 1024.38 1024.54 1024.70 1024.86 1024.98 1025.14 1025.26 1025.46 1025.66 1025.78 1025.90 1026.02 1026.14 1026.22 1026.30 1026.42 1026.54 1026.62 1026.74 1026.78 1026.82 1026.90 1026.98
1014.94 1015.06 1015.02 1014.94 1015.02 1015.02 1015.18 1015.14 1015.26 1015.34 1015.50 1015.98 1016.18 1016.14 1016.22 1016.50 1016.78 1016.78 1017.30 1017.94 1018.82 1018.94 1018.38 1018.50 1018.50 1018.90 1018.86 1019.62 1019.74 1020.14 1020.62 1020.94 1021.06 1021.22 1021.46 1021.58 1021.62 1021.86 1022.22 1022.50 1022.70 1022.78 1022.90 1023.10 1023.26 1023.50 1023.70 1023.86 1023.98 1024.14 1024.30 1024.46 1024.62 1024.78 1024.94 1025.10 1025.26 1025.38 1025.54 1025.70 1025.86 1025.94 1026.02 1026.14 1026.22 1026.30 1026.38 1026.50 1026.58 1026.70 1026.74 1026.82 1026.86 1026.94
1014.38 1014.62 1014.74 1014.90 1015.02 1015.10 1015.18 1015.14 1015.10 1015.22 1015.50 1015.82 1016.46 1017.02 1016.98 1017.26 1017.42 1017.58 1017.38 1017.46 1018.06 1018.34 1018.34 1018.06 1018.54 1018.74 1018.94 1019.26 1019.74 1019.94 1020.10 1020.42 1020.74 1021.02 1021.30 1021.46 1021.62 1021.82 1022.06 1022.34 1022.58 1022.82 1022.94 1023.10 1023.30 1023.50 1023.70 1023.90 1024.06 1024.18 1024.34 1024.50 1024.66 1024.86 1025.06 1025.18 1025.34 1025.42 1025.58 1025.74 1025.86 1025.94 1026.02 1026.14 1026.26 1026.38 1026.42 1026.50 1026.58 1026.66 1026.70 1026.78 1026.82 1026.90
1014.22 1014.46 1014.74 1014.90 1014.94 1014.98 1015.02 1015.02 1015.42 1015.82 1016.38 1016.74 1016.54 1016.34 1016.46 1016.90 1017.06 1017.18 1017.34 1017.74 1017.46 1017.62 1017.94 1018.10 1018.14 1018.46 1018.86 1019.14 1019.30 1019.66 1019.94 1020.34 1020.66 1020.74 1020.94 1021.14 1021.38 1021.70 1022.02 1022.18 1022.42 1022.74 1022.94 1023.06 1023.26 1023.46 1023.66 1023.90 1024.06 1024.22 1024.34 1024.54 1024.70 1024.86 1025.02 1025.14 1025.34 1025.54 1025.70 1025.82 1025.90 1025.98 1026.14 1026.26 1026.34 1026.46 1026.50 1026.50 1026.54 1026.58 1026.66 1026.74 1026.78 1026.82
1014.26 1014.58 1014.78 1014.78 1014.74 1014.74 1014.86 1015.18 1015.74 1016.06 1015.98 1015.98 1016.10 1016.34 1016.50 1016.50 1016.78 1016.90 1017.06 1017.34 1017.62 1017.30 1017.50 1017.90 1017.94 1018.22 1018.62 1018.78 1019.18 1019.46 1020.02 1020.46 1020.58 1020.66 1020.86 1021.02 1021.22 1021.50 1021.74 1021.98 1022.18 1022.58 1022.90 1023.06 1023.18 1023.38 1023.62 1023.82 1024.02 1024.26 1024.42 1024.54 1024.66 1024.82 1024.98 1025.18 1025.42 1025.54 1025.70 1025.86 1025.98 1026.10 1026.18 1026.30 1026.38 1026.46 1026.50 1026.54 1026.58 1026.54 1026.54 1026.62 1026.66 1026.70
1014.50 1014.70 1014.70 1014.54 1014.62 1014.70 1014.86 1015.42 1015.34 1015.66 1015.94 1016.02 1016.02 1016.30 1016.38 1016.58 1017.02 1016.74 1016.58 1016.82 1017.90 1018.22 1017.78 1017.34 1017.98 1018.30 1018.66 1019.14 1019.26 1019.34 1019.50 1020.10 1020.58 1020.74 1020.82 1020.94 1021.10 1021.38 1021.82 1021.98 1022.14 1022.54 1022.86 1023.10 1023.30 1023.46 1023.58 1023.70 1023.90 1024.18 1024.38 1024.50 1024.66 1024.90 1025.10 1025.26 1025.42 1025.58 1025.74 1025.90 1026.06 1026.14 1026.22 1026.30 1026.38 1026.46 1026.50 1026.54 1026.58 1026.58 1026.58 1026.62 1026.58 1026.54
1014.58 1014.50 1014.22 1014.46 1014.50 1014.58 1014.62 1014.98 1015.14 1015.46 1016.02 1015.90 1015.86 1015.98 1016.18 1016.46 1016.74 1016.66 1016.70 1016.82 1017.42 1017.74 1018.10 1018.46 1017.78 1018.26 1018.46 1018.66 1019.34 1019.34 1019.26 1019.38 1019.70 1020.30 1020.86 1021.14 1021.02 1021.22 1021.46 1021.94 1022.22 1022.54 1022.82 1022.98 1023.10 1023.18 1023.30 1023.46 1023.78 1024.06 1024.42 1024.70 1024.90 1025.02 1025.14 1025.30 1025.46 1025.62 1025.78 1025.94 1026.06 1026.18 1026.26 1026.34 1026.38 1026.42 1026.46 1026.50 1026.50 1026.54 1026.58 1026.58 1026.54 1026.46
1014.30 1014.10 1014.30 1014.46 1014.54 1014.38 1014.42 1014.54 1014.86 1015.10 1015.50 1015.62 1015.58 1015.78 1016.02 1016.14 1016.34 1016.62 1016.94 1017.10 1017.22 1017.54 1017.74 1018.02 1017.86 1018.06 1018.58 1018.78 1018.74 1018.94 1019.46 1019.78 1020.06 1020.10 1020.30 1020.78 1021.06 1021.26 1021.34 1021.38 1021.82 1022.42 1022.62 1022.90 1023.14 1023.30 1023.54 1023.82 1024.18 1024.42 1024.62 1024.78 1024.90 1025.06 1025.18 1025.26 1025.42 1025.58 1025.78 1025.94 1026.06 1026.14 1026.22 1026.26 1026.30 1026.34 1026.34 1026.38 1026.38 1026.42 1026.46 1026.46 1026.50 1026.46
1014.14 1014.18 1014.26 1014.50 1014.62 1014.54 1014.34 1014.38 1014.50 1014.78 1015.06 1015.18 1015.54 1015.86 1015.74 1015.70 1015.98 1016.46 1016.90 1017.42 1017.74 1017.46 1017.42 1017.74 1017.54 1017.86 1018.30 1018.54 1018.82 1019.26 1019.50 1019.62 1019.58 1019.74 1019.82 1020.26 1020.54 1020.86 1021.22 1021.42 1021.50 1021.58 1022.14 1022.58 1022.94 1023.26 1023.62 1023.90 1024.18 1024.42 1024.74 1024.90 1024.98 1025.10 1025.18 1025.38 1025.50 1025.66 1025.78 1025.90 1026.02 1026.06 1026.14 1026.18 1026.18 1026.18 1026.22 1026.22 1026.22 1026.22 1026.26 1026.34 1026.38 1026.42
1014.18 1013.98 1014.10 1014.14 1013.98 1014.18 1014.42 1014.46 1014.46 1014.74 1015.02 1014.94 1015.02 1015.26 1015.42 1015.46 1016.02 1016.14 1016.66 1017.18 1017.34 1017.22 1017.42 1017.46 1017.46 1017.78 1018.10 1018.34 1018.46 1018.78 1018.94 1018.82 1019.18 1019.58 1019.82 1020.18 1020.66 1020.94 1021.14 1021.38 1021.54 1021.66 1021.82 1022.38 1022.94 1023.18 1023.42 1023.70 1024.06 1024.26 1024.54 1024.86 1024.94 1025.10 1025.26 1025.46 1025.54 1025.66 1025.74 1025.82 1025.94 1026.02 1026.10 1026.14 1026.14 1026.18 1026.18 1026.18 1026.18 1026.18 1026.18 1026.22 1026.30 1026.34
1014.38 1014.18 1014.22 1014.34 1014.22 1014.30 1014.38 1014.50 1014.62 1014.86 1014.90 1014.94 1015.02 1014.94 1014.90 1014.90 1015.46 1015.94 1016.26 1016.46 1016.58 1016.82 1016.94 1016.98 1017.22 1017.42 1017.66 1017.94 1018.10 1018.34 1018.46 1018.82 1019.06 1019.10 1019.38 1019.82 1020.46 1020.82 1021.18 1021.54 1021.54 1021.54 1021.90 1022.34 1022.74 1023.18 1023.34 1023.46 1023.98 1024.42 1024.66 1024.94 1025.10 1025.26 1025.46 1025.50 1025.58 1025.66 1025.74 1025.90 1026.06 1026.22 1026.30 1026.30 1026.34 1026.34 1026.30 1026.26 1026.22 1026.22 1026.22 1026.22 1026.22 1026.26
1014.26 1014.50 1014.54 1014.14 1014.26 1014.62 1014.62 1014.90 1015.18 1015.58 1015.58 1015.38 1015.26 1015.02 1014.86 1015.06 1015.54 1015.70 1015.94 1016.10 1016.30 1016.46 1016.66 1016.90 1017.02 1017.14 1017.22 1017.54 1017.82 1018.06 1018.30 1018.54 1018.78 1018.78 1019.10 1019.58 1019.90 1020.34 1020.54 1020.86 1021.22 1021.30 1021.50 1022.06 1022.82 1023.66 1023.78 1023.74 1024.14 1024.66 1024.98 1025.10 1025.22 1025.30 1025.42 1025.54 1025.66 1025.78 1025.98 1026.14 1026.30 1026.38 1026.42 1026.54 1026.50 1026.46 1026.38 1026.34 1026.30 1026.26 1026.26 1026.22 1026.22 1026.26
1014.42 1014.46 1014.50 1014.66 1014.66 1014.70 1014.86 1015.14 1015.42 1015.46 1015.82 1015.98 1015.98 1015.82 1015.98 1016.34 1016.30 1015.90 1015.82 1015.70 1015.70 1015.98 1016.26 1016.66 1017.06 1017.22 1017.30 1017.50 1017.70 1017.74 1017.86 1017.98 1018.46 1018.94 1019.18 1019.46 1019.70 1019.98 1020.42 1020.78 1021.14 1021.30 1021.30 1022.02 1022.98 1023.94 1024.26 1024.22 1024.50 1024.94 1025.30 1025.30 1025.54 1025.86 1025.82 1025.66 1025.70 1025.86 1026.10 1026.22 1026.26 1026.38 1026.58 1026.62 1026.50 1026.42 1026.38 1026.34 1026.34 1026.34 1026.34 1026.34 1026.34 1026.34
1014.46 1014.62 1014.70 1014.66 1014.90 1014.94 1015.18 1015.34 1015.18 1015.26 1015.54 1015.90 1016.10 1016.26 1016.42 1016.50 1016.94 1016.62 1016.14 1015.94 1015.82 1016.18 1016.58 1016.94 1017.38 1017.74 1017.58 1017.66 1017.86 1017.82 1017.66 1017.66 1018.30 1018.78 1019.34 1019.50 1019.78 1020.02 1020.50 1020.94 1021.18 1021.38 1021.34 1021.66 1022.70 1024.06 1024.58 1024.62 1024.74 1025.30 1025.70 1025.58 1025.74 1025.90 1025.94 1025.82 1025.78 1025.98 1026.18 1026.26 1026.38 1026.46 1026.50 1026.42 1026.34 1026.34 1026.34 1026.38 1026.42 1026.42 1026.46 1026.46 1026.46 1026.50
1015.26 1014.98 1014.90 1014.94 1015.10 1015.22 1015.14 1015.30 1015.18 1014.98 1015.42 1015.94 1016.22 1016.42 1016.62 1016.90 1017.14 1017.10 1016.82 1016.78 1016.62 1016.78 1017.10 1017.54 1018.02 1018.30 1018.22 1018.38 1018.46 1018.14 1017.90 1017.78 1018.02 1018.34 1018.90 1019.30 1019.74 1020.46 1020.98 1021.26 1021.42 1021.66 1021.78 1021.78 1022.06 1023.74 1024.66 1024.74 1024.82 1025.46 1025.66 1025.78 1025.98 1026.14 1026.30 1026.14 1026.10 1026.18 1026.26 1026.34 1026.46 1026.50 1026.34 1026.26 1026.30 1026.38 1026.42 1026.46 1026.50 1026.54 1026.58 1026.62 1026.62 1026.70
1016.46 1016.18 1015.90 1015.70 1015.58 1015.50 1015.62 1015.70 1015.70 1015.26 1015.70 1016.14 1016.14 1016.58 1016.90 1017.06 1017.26 1017.78 1018.10 1017.58 1017.30 1017.34 1017.46 1017.90 1018.34 1018.70 1018.82 1018.66 1018.62 1018.54 1018.18 1018.26 1018.38 1018.74 1019.14 1019.54 1019.94 1020.18 1020.78 1021.42 1021.62 1021.94 1022.22 1021.98 1021.78 1023.30 1024.42 1024.66 1024.74 1025.54 1025.74 1025.86 1026.18 1026.34 1026.46 1026.54 1026.38 1026.30 1026.34 1026.42 1026.50 1026.46 1026.38 1026.34 1026.34 1026.42 1026.54 1026.62 1026.70 1026.78 1026.90 1026.98 1027.06 1027.06
1017.42 1017.26 1016.98 1016.66 1016.66 1016.58 1016.46 1016.38 1016.38 1016.26 1016.74 1016.46 1016.42 1016.74 1017.10 1017.42 1017.54 1018.18 1018.46 1018.22 1018.06 1018.02 1018.26 1018.50 1018.70 1018.70 1018.66 1018.78 1018.82 1018.66 1018.54 1018.50 1018.50 1018.70 1019.22 1019.74 1019.98 1020.38 1020.94 1021.54 1021.58 1021.78 1021.90 1022.02 1021.82 1022.38 1023.90 1024.50 1024.62 1025.46 1025.86 1026.14 1026.42 1026.62 1026.70 1026.70 1026.70 1026.54 1026.46 1026.46 1026.46 1026.42 1026.42 1026.42 1026.46 1026.54 1026.62 1026.70 1026.78 1026.90 1026.98 1027.10 1027.14 1027.22
1018.34 1018.34 1017.94 1017.66 1017.46 1017.30 1017.14 1016.78 1016.86 1017.06 1016.94 1016.98 1016.86 1016.58 1017.14 1017.70 1018.18 1018.66 1018.58 1018.50 1018.74 1018.66 1018.70 1018.82 1018.86 1018.90 1018.94 1018.94 1018.98 1019.02 1018.98 1018.90 1018.78 1018.58 1019.14 1019.62 1019.78 1020.14 1020.46 1020.90 1021.50 1021.82 1021.78 1021.90 1022.02 1022.18 1023.30 1024.18 1024.50 1025.10 1025.98 1026.38 1026.62 1026.74 1026.78 1026.78 1026.74 1026.74 1026.74 1026.62 1026.42 1026.38 1026.42 1026.50 1026.62 1026.70 1026.74 1026.78 1026.86 1026.94 1027.02 1027.06 1027.14 1027.26
1018.98 1018.78 1018.62 1018.62 1018.34 1017.82 1017.74 1017.54 1017.62 1017.42 1017.26 1017.54 1017.62 1017.38 1017.46 1018.06 1018.54 1018.86 1018.70 1018.66 1018.74 1018.90 1019.02 1019.26 1019.22 1019.30 1019.34 1019.30 1019.30 1019.46 1019.42 1019.46 1019.54 1019.62 1019.70 1019.70 1019.70 1020.18 1020.58 1020.94 1021.34 1021.34 1021.66 1021.58 1021.82 1022.10 1023.46 1023.90 1024.34 1024.34 1025.66 1026.38 1026.70 1026.78 1026.82 1026.82 1026.86 1026.90 1026.82 1026.70 1026.62 1026.58 1026.62 1026.70 1026.70 1026.70 1026.74 1026.82 1026.90 1026.98 1027.10 1027.14 1027.10 1027.22
1019.54 1019.54 1019.54 1019.54 1019.50 1018.62 1018.22 1018.46 1018.46 1018.62 1018.46 1018.58 1018.62 1018.30 1018.30 1018.42 1018.86 1018.90 1018.82 1018.82 1018.90 1019.14 1019.34 1019.74 1019.82 1019.94 1019.94 1019.86 1019.86 1019.90 1019.98 1020.06 1020.18 1020.22 1020.18 1020.02 1019.82 1020.18 1020.62 1020.98 1020.98 1021.10 1021.90 1021.50 1021.62 1021.74 1022.86 1023.06 1023.94 1023.78 1023.38 1024.90 1026.66 1026.66 1026.86 1026.94 1026.94 1026.94 1026.86 1026.74 1026.70 1026.82 1026.86 1026.86 1026.82 1026.74 1026.66 1026.70 1026.78 1026.90 1026.98 1027.02 1026.98 1026.98
1020.34 1020.46 1020.58 1020.66 1020.54 1019.58 1019.10 1019.02 1019.26 1019.50 1019.58 1019.42 1019.62 1019.86 1019.82 1019.66 1019.42 1019.22 1019.34 1019.38 1019.26 1019.42 1019.66 1019.86 1020.06 1020.26 1020.30 1020.42 1020.46 1020.58 1020.62 1020.70 1020.66 1020.58 1020.54 1020.46 1020.34 1020.26 1020.74 1021.10 1021.50 1021.70 1022.10 1021.66 1021.70 1021.54 1022.26 1022.78 1023.30 1023.50 1023.90 1024.22 1025.06 1026.10 1026.74 1026.90 1026.94 1027.02 1026.94 1026.70 1026.74 1026.90 1026.86 1026.82 1026.78 1026.74 1026.70 1026.66 1026.66 1026.78 1026.90 1027.02 1027.06 1027.06
1021.18 1021.46 1021.42 1021.46 1021.10 1020.42 1020.02 1019.86 1019.98 1020.18 1020.34 1020.26 1020.22 1020.78 1020.38 1019.98 1019.94 1020.02 1020.02 1019.90 1019.90 1020.02 1020.18 1020.38 1020.58 1020.78 1020.94 1021.02 1021.10 1021.10 1021.10 1021.10 1021.10 1021.06 1021.06 1021.02 1021.02 1021.18 1021.30 1021.34 1021.58 1021.90 1022.06 1021.78 1021.66 1021.66 1021.90 1022.58 1022.66 1022.90 1023.54 1024.18 1025.34 1025.50 1026.38 1026.78 1026.66 1026.74 1026.70 1026.62 1026.50 1026.54 1026.70 1026.62 1026.66 1026.70 1026.74 1026.66 1026.66 1026.70 1026.82 1026.94 1026.98 1027.02
1022.10 1021.94 1021.86 1021.66 1021.26 1021.10 1020.82 1020.78 1020.78 1020.78 1020.90 1020.82 1021.06 1020.90 1020.86 1020.70 1020.62 1020.74 1020.82 1020.78 1020.82 1020.90 1021.02 1021.10 1021.34 1021.50 1021.58 1021.62 1021.74 1021.74 1021.70 1021.70 1021.66 1021.66 1021.62 1021.66 1021.70 1021.86 1022.02 1022.02 1022.02 1022.06 1022.14 1021.94 1021.86 1021.86 1021.94 1022.58 1022.78 1022.66 1023.38 1023.90 1024.78 1025.62 1025.86 1026.26 1026.54 1026.62 1026.58 1026.42 1026.38 1026.38 1026.42 1026.34 1026.26 1026.34 1026.54 1026.58 1026.54 1026.66 1026.82 1026.86 1026.86 1026.90
1022.38 1022.22 1022.14 1022.06 1021.86 1021.66 1021.62 1021.58 1021.54 1021.50 1021.62 1021.74 1021.54 1021.38 1021.42 1021.46 1021.46 1021.58 1021.70 1021.70 1021.78 1021.78 1021.86 1021.94 1022.06 1022.14 1022.14 1022.10 1022.18 1022.30 1022.34 1022.30 1022.22 1022.18 1022.14 1022.22 1022.30 1022.50 1022.58 1022.58 1022.58 1022.46 1022.34 1022.30 1022.30 1022.30 1022.38 1022.62 1022.86 1022.90 1023.02 1023.66 1024.42 1025.14 1025.78 1026.06 1026.22 1026.30 1026.38 1026.42 1026.30 1026.26 1026.26 1026.18 1026.10 1026.10 1026.26 1026.46 1026.62 1026.82 1026.90 1026.90 1026.98 1027.02
1022.94 1022.82 1022.58 1022.38 1022.26 1022.14 1022.10 1022.10 1022.06 1022.10 1022.14 1022.02 1021.94 1021.94 1021.98 1022.02 1022.26 1022.46 1022.54 1022.58 1022.50 1022.62 1022.74 1022.78 1022.74 1022.66 1022.62 1022.66 1022.70 1022.62 1022.62 1022.58 1022.54 1022.54 1022.62 1022.74 1022.86 1022.82 1022.90 1022.98 1022.98 1022.94 1022.90 1022.90 1022.82 1022.78 1022.74 1022.74 1022.98 1023.14 1023.38 1023.82 1024.38 1025.18 1025.34 1025.74 1025.86 1026.06 1026.14 1026.30 1026.30 1026.18 1026.34 1026.14 1026.06 1026.06 1026.14 1026.30 1026.38 1026.50 1026.62 1026.82 1027.02 1027.30
1023.10 1022.98 1022.86 1022.78 1022.70 1022.70 1022.74 1022.66 1022.70 1022.78 1022.82 1022.62 1022.58 1022.62 1022.58 1022.70 1022.94 1023.06 1023.10 1023.10 1023.18 1023.38 1023.42 1023.34 1023.22 1023.10 1023.02 1022.98 1022.94 1022.94 1022.98 1022.98 1023.06 1023.14 1023.14 1023.06 1023.14 1023.26 1023.30 1023.38 1023.54 1023.50 1023.42 1023.30 1023.14 1023.10 1023.06 1023.14 1023.22 1023.34 1023.74 1024.18 1024.42 1024.90 1025.22 1025.50 1025.78 1025.78 1025.94 1025.94 1025.98 1026.22 1026.62 1026.46 1026.30 1026.26 1026.26 1026.18 1026.34 1026.26 1026.50 1026.82 1027.10 1027.30
1023.46 1023.46 1023.38 1023.34 1023.22 1023.18 1023.14 1023.14 1023.22 1023.22 1023.26 1023.22 1023.26 1023.34 1023.42 1023.50 1023.58 1023.62 1023.62 1023.62 1023.62 1023.58 1023.46 1023.34 1023.30 1023.22 1023.18 1023.14 1023.10 1023.22 1023.26 1023.42 1023.38 1023.50 1023.50 1023.42 1023.58 1023.70 1023.70 1023.66 1023.86 1023.82 1023.74 1023.58 1023.42 1023.38 1023.42 1023.50 1023.58 1023.54 1023.94 1024.58 1024.82 1024.86 1025.14 1025.34 1025.66 1026.14 1026.74 1026.66 1026.46 1026.86 1026.94 1026.70 1026.66 1026.54 1026.50 1026.34 1026.38 1026.62 1026.86 1027.10 1027.30 1027.42
1023.90 1023.82 1023.74 1023.66 1023.66 1023.58 1023.54 1023.62 1023.66 1023.82 1023.90 1023.98 1023.98 1024.02 1024.02 1023.98 1023.94 1023.94 1023.86 1023.78 1023.82 1023.82 1023.70 1023.66 1023.66 1023.58 1023.66 1023.74 1023.70 1023.74 1023.78 1023.86 1023.86 1023.78 1023.70 1023.62 1023.66 1023.78 1023.66 1023.74 1023.86 1023.86 1023.78 1023.74 1023.78 1023.78 1023.74 1023.78 1023.90 1024.10 1024.18 1024.26 1024.50 1025.06 1025.46 1025.62 1026.06 1026.46 1026.78 1026.86 1026.94 1027.06 1027.02 1026.94 1026.94 1026.70 1026.66 1026.50 1026.86 1027.10 1027.18 1027.14 1027.30 1027.46
1024.34 1024.30 1024.30 1024.38 1024.34 1024.38 1024.46 1024.46 1024.46 1024.42 1024.34 1024.42 1024.46 1024.42 1024.42 1024.46 1024.42 1024.38 1024.34 1024.46 1024.58 1024.62 1024.42 1024.46 1024.46 1024.26 1024.02 1023.94 1023.94 1023.78 1023.66 1023.66 1023.62 1023.78 1023.66 1023.70 1023.66 1023.82 1023.74 1023.66 1023.90 1023.90 1023.94 1023.98 1024.02 1024.06 1024.14 1024.34 1024.38 1024.50 1024.70 1024.86 1024.78 1024.74 1025.18 1026.02 1026.50 1026.58 1026.74 1027.02 1026.98 1027.10 1027.06 1027.14 1027.06 1026.90 1026.74 1026.74 1027.22 1027.34 1027.38 1027.54 1027.42 1027.38
1024.98 1025.18 1025.22 1025.30 1025.30 1025.22 1025.10 1025.02 1025.02 1025.02 1024.98 1024.86 1024.74 1024.74 1024.74 1024.70 1024.74 1024.74 1024.70 1024.78 1024.86 1024.86 1024.78 1024.70 1024.54 1024.58 1024.50 1024.30 1024.22 1023.94 1023.86 1023.78 1023.62 1023.74 1023.50 1023.58 1023.66 1023.78 1023.82 1023.86 1023.94 1023.98 1023.90 1023.94 1024.02 1024.14 1024.34 1024.58 1024.66 1024.78 1024.86 1025.06 1025.30 1025.42 1025.46 1025.94 1026.74 1026.82 1026.94 1027.06 1027.18 1027.26 1027.34 1027.22 1027.18 1027.22 1027.02 1026.98 1027.06 1027.26 1027.62 1027.74 1027.86 1027.90
1025.46 1025.54 1025.54 1025.62 1025.62 1025.66 1025.58 1025.54 1025.54 1025.42 1025.30 1025.22 1025.18 1025.14 1025.10 1025.06 1024.98 1024.86 1024.82 1024.86 1024.74 1024.66 1024.66 1024.66 1024.70 1024.70 1024.54 1024.38 1024.30 1024.06 1024.02 1023.86 1023.74 1023.62 1023.74 1023.74 1023.70 1023.74 1023.90 1023.86 1023.90 1023.94 1024.06 1024.14 1024.30 1024.30 1024.30 1024.58 1024.74 1025.02 1025.18 1025.30 1025.54 1025.98 1026.10 1026.06 1026.34 1026.94 1026.98 1027.10 1027.06 1027.14 1027.38 1027.38 1027.34 1027.34 1027.30 1027.30 1027.18 1027.34 1027.70 1027.98 1027.94 1027.98
1025.86 1025.90 1025.94 1025.98 1026.06 1026.02 1025.90 1025.90 1025.86 1025.86 1025.82 1025.74 1025.70 1025.70 1025.66 1025.66 1025.58 1025.46 1025.30 1025.26 1025.02 1024.86 1024.78 1024.74 1024.66 1024.70 1024.66 1024.50 1024.34 1024.22 1024.10 1024.06 1024.02 1024.02 1023.78 1023.74 1023.70 1023.94 1024.14 1024.22 1024.10 1023.98 1024.10 1024.22 1024.34 1024.54 1024.62 1024.90 1024.90 1025.02 1025.34 1025.58 1025.78 1026.06 1026.34 1026.34 1026.22 1026.26 1026.50 1027.06 1027.14 1027.30 1027.38 1027.46 1027.50 1027.46 1027.38 1027.42 1027.46 1027.38 1027.66 1027.90 1028.06 1027.94
1026.10 1026.10 1026.10 1026.18 1026.22 1026.14 1026.14 1026.14 1026.10 1026.14 1026.22 1026.26 1026.30 1026.34 1026.34 1026.26 1026.26 1026.06 1025.94 1025.62 1025.34 1025.22 1025.10 1025.02 1024.90 1024.86 1024.74 1024.66 1024.54 1024.42 1024.34 1024.38 1024.26 1024.18 1024.02 1024.10 1024.18 1024.06 1024.18 1024.30 1024.38 1024.58 1024.58 1024.66 1024.54 1024.58 1024.50 1024.82 1025.14 1025.26 1025.58 1025.94 1026.26 1026.66 1026.78 1026.58 1026.66 1026.70 1026.62 1027.02 1027.34 1027.38 1027.38 1027.42 1027.34 1027.38 1027.54 1027.38 1027.38 1027.46 1027.58 1027.82 1027.98 1027.98
1026.50 1026.50 1026.42 1026.42 1026.46 1026.38 1026.30 1026.22 1026.18 1026.18 1026.26 1026.42 1026.50 1026.50 1026.46 1026.42 1026.38 1026.26 1026.22 1025.90 1025.82 1025.74 1025.46 1025.18 1025.14 1025.02 1024.86 1024.78 1024.66 1024.54 1024.62 1024.74 1024.54 1024.58 1024.58 1024.54 1024.30 1024.46 1024.70 1024.82 1024.98 1024.90 1025.06 1025.14 1025.06 1025.06 1024.98 1025.02 1025.14 1025.42 1025.42 1025.94 1026.66 1026.82 1026.90 1026.82 1026.82 1026.82 1026.98 1026.90 1027.10 1027.38 1027.50 1027.42 1027.46 1027.42 1027.42 1027.50 1027.46 1027.66 1027.62 1027.70 1027.94 1027.86
1026.94 1027.02 1027.06 1027.10 1027.10 1027.02 1026.90 1026.90 1026.90 1026.86 1026.82 1026.78 1026.70 1026.62 1026.54 1026.50 1026.42 1026.34 1026.26 1026.14 1026.10 1025.98 1025.82 1025.46 1025.26 1024.98 1024.86 1024.74 1024.90 1024.78 1024.74 1024.54 1024.66 1024.90 1024.86 1024.82 1024.86 1024.82 1025.02 1025.06 1025.14 1025.42 1025.30 1025.34 1025.38 1025.26 1025.22 1025.26 1025.50 1025.62 1025.62 1025.74 1025.86 1026.02 1026.30 1026.74 1027.06 1026.98 1027.10 1027.14 1027.10 1027.38 1027.42 1027.42 1027.50 1027.50 1027.42 1027.38 1027.50 1027.70 1027.66 1027.90 1027.98 1028.02
1027.22 1027.30 1027.42 1027.42 1027.50 1027.46 1027.42 1027.46 1027.50 1027.50 1027.38 1027.34 1027.22 1027.10 1026.90 1026.74 1026.66 1026.66 1026.54 1026.46 1026.34 1026.30 1026.18 1026.02 1025.86 1025.38 1024.86 1024.66 1024.86 1025.02 1025.18 1024.78 1024.70 1024.78 1024.74 1024.82 1024.94 1024.82 1024.94 1025.22 1025.26 1025.38 1025.58 1025.62 1025.58 1025.66 1025.46 1025.38 1025.34 1025.46 1025.62 1025.54 1025.50 1025.82 1026.30 1026.54 1026.86 1027.18 1027.18 1027.18 1027.22 1027.10 1027.22 1027.38 1027.38 1027.38 1027.46 1027.54 1027.54 1027.50 1027.58 1027.66 1027.58 1027.78
1027.46 1027.50 1027.62 1027.58 1027.58 1027.66 1027.70 1027.74 1027.74 1027.62 1027.58 1027.54 1027.38 1027.26 1027.18 1027.10 1026.98 1027.02 1026.98 1026.94 1026.82 1026.62 1026.42 1026.38 1026.26 1026.06 1025.54 1025.22 1025.10 1024.90 1024.94 1025.10 1024.98 1024.94 1025.02 1025.14 1025.18 1025.10 1025.14 1025.30 1025.58 1025.58 1025.34 1025.54 1025.46 1025.34 1025.30 1025.30 1025.46 1025.70 1025.82 1026.02 1026.22 1026.34 1026.42 1026.66 1027.14 1027.18 1027.14 1027.06 1027.10 1027.18 1027.18 1027.18 1027.18 1027.30 1027.30 1027.42 1027.46 1027.54 1027.62 1027.70 1027.78 1027.74
1027.78 1027.82 1027.86 1027.82 1027.74 1027.82 1027.86 1027.90 1027.86 1027.74 1027.62 1027.62 1027.54 1027.46 1027.34 1027.22 1027.18 1027.06 1027.06 1027.06 1026.98 1026.82 1026.62 1026.50 1026.50 1026.34 1026.10 1025.70 1025.46 1025.18 1025.34 1025.14 1025.06 1025.14 1025.10 1025.02 1025.10 1025.26 1025.18 1025.30 1025.50 1025.54 1025.22 1025.30 1025.26 1025.22 1025.26 1025.46 1025.50 1025.46 1025.58 1025.82 1026.06 1026.10 1026.62 1026.74 1027.06 1027.26 1027.18 1027.14 1027.06 1026.98 1027.02 1027.18 1027.26 1027.22 1027.22 1027.26 1027.34 1027.50 1027.58 1027.90 1028.14 1027.86
1027.98 1028.02 1028.02 1028.02 1028.02 1028.02 1028.02 1028.02 1027.90 1027.82 1027.74 1027.70 1027.66 1027.70 1027.54 1027.42 1027.30 1027.22 1027.26 1027.22 1027.18 1026.98 1026.86 1026.66 1026.62 1026.54 1026.42 1026.18 1026.10 1025.74 1025.22 1025.10 1025.02 1024.98 1025.06 1025.10 1025.10 1025.10 1025.22 1025.42 1025.50 1025.58 1025.54 1025.50 1025.54 1025.42 1025.38 1025.34 1025.26 1025.34 1025.50 1025.54 1025.78 1025.94 1026.18 1026.54 1026.86 1027.02 1027.10 1027.14 1026.90 1026.86 1026.94 1027.14 1027.10 1027.18 1027.18 1027.18 1027.18 1027.22 1027.38 1027.58 1027.94 1028.10
1028.18 1028.30 1028.38 1028.30 1028.22 1028.22 1028.22 1028.26 1028.22 1028.06 1028.02 1028.02 1027.98 1027.82 1027.78 1027.66 1027.54 1027.50 1027.42 1027.38 1027.30 1027.18 1027.10 1026.90 1026.66 1026.70 1026.66 1026.54 1026.30 1025.86 1025.62 1025.54 1025.54 1025.42 1025.38 1025.46 1025.46 1025.34 1025.22 1025.30 1025.38 1025.50 1025.42 1025.42 1025.46 1025.54 1025.54 1025.50 1025.50 1025.42 1025.50 1025.58 1025.70 1025.98 1026.30 1026.54 1026.62 1026.70 1026.78 1026.90 1026.78 1026.78 1026.70 1026.94 1027.22 1027.26 1027.14 1027.06 1027.14 1027.34 1027.38 1027.38 1027.46 1027.54
1028.46 1028.50 1028.50 1028.50 1028.42 1028.34 1028.42 1028.46 1028.42 1028.42 1028.34 1028.38 1028.26 1028.14 1028.02 1027.78 1027.66 1027.54 1027.50 1027.42 1027.38 1027.34 1027.26 1027.14 1026.90 1026.78 1026.82 1026.70 1026.38 1026.02 1025.98 1025.94 1025.82 1025.94 1025.90 1025.58 1025.58 1025.62 1025.46 1025.30 1025.34 1025.38 1025.38 1025.38 1025.34 1025.42 1025.50 1025.54 1025.62 1025.58 1025.70 1025.78 1025.82 1025.86 1026.02 1026.14 1026.42 1026.66 1026.86 1026.78 1026.82 1026.98 1026.90 1026.90 1026.78 1026.74 1026.78 1026.74 1026.82 1026.98 1027.10 1027.34 1027.38 1027.50
Wind_Speed
7 6 8 7 6 6 6 6 6 6 6 6 7 8 10 9 10 8 8 8 6 8 8 7 6 9 9 8 7 8 6 8 9 6 6 6 4 8 9 9 9 8 9 9 10 11 11 11 13 13 13 12 11 12 11 9 8 7 8 9 8 9 8 7 9 10 11 10 9 8 8 8 8 8
3 5 5 5 6 5 6 6 6 6 6 6 7 7 6 7 10 9 10 8 6 7 8 6 5 6 8 8 7 7 7 11 10 7 6 6 6 10 10 10 9 9 10 11 11 11 11 12 13 13 13 13 13 11 11 10 9 8 10 10 9 9 8 9 11 12 11 10 9 8 8 7 6 6
3 5 6 5 5 5 5 4 5 5 6 6 6 6 6 5 4 6 6 7 5 5 7 6 7 9 9 8 8 6 7 10 9 8 7 6 9 11 8 11 11 11 12 12 12 11 12 12 12 12 12 12 9 10 10 9 9 11 10 9 10 9 9 9 10 11 10 9 9 8 7 7 6 6
6 7 8 7 6 5 5 5 5 5 5 5 7 7 7 5 5 6 7 8 8 4 4 6 8 11 10 9 9 7 7 8 9 7 6 8 11 7 6 9 11 11 11 11 11 12 12 12 11 11 11 11 10 11 11 10 11 9 10 10 10 9 9 9 9 9 9 8 8 7 7 6 6 5
9 7 8 7 6 5 5 5 6 6 6 6 6 6 7 7 5 6 6 9 7 1 2 7 8 9 10 8 8 9 8 8 5 8 7 8 7 6 6 6 9 11 11 11 11 11 12 11 12 11 11 10 11 10 10 10 9 9 10 9 9 9 9 8 8 7 8 8 8 7 7 7 6 5
9 8 7 6 6 6 6 5 6 7 6 8 8 8 8 8 9 6 5 6 7 5 4 7 8 9 10 8 8 10 10 9 5 8 7 6 6 7 6 6 6 10 10 10 11 11 11 10 10 11 10 10 10 10 9 9 8 8 10 9 8 8 8 8 7 5 8 9 8 8 7 7 7 7
6 6 6 6 5 5 6 6 5 5 4 2 5 7 2 1 3 3 1 7 9 9 7 8 10 9 8 9 10 9 10 9 8 9 9 8 6 5 6 6 5 8 10 11 10 11 11 10 9 11 10 10 10 9 9 9 8 8 9 9 8 8 7 7 6 5 4 7 8 8 8 8 8 8
6 6 5 4 6 6 7 5 2 5 9 6 6 9 6 6 8 8 4 5 7 7 9 8 10 9 8 6 9 8 8 9 8 8 8 7 7 7 6 7 6 8 11 11 11 11 11 10 10 10 10 10 9 9 9 9 8 7 7 7 7 7 6 5 5 4 4 4 6 8 8 8 9 9
4 3 3 4 5 6 6 4 7 6 9 8 6 5 2 7 6 4 3 2 5 5 9 8 7 7 6 7 8 8 9 6 6 7 9 9 8 7 8 6 6 9 12 11 12 12 11 11 10 10 10 10 10 10 9 8 7 7 7 6 5 4 3 3 3 3 4 4 5 5 8 9 9 10
1 5 5 6 6 5 6 4 6 8 8 5 6 7 5 3 5 4 5 6 4 5 1 8 6 5 8 5 6 9 10 10 7 6 6 6 6 7 6 5 5 5 6 6 6 8 9 11 12 11 10 10 10 8 7 7 6 6 6 6 5 4 4 4 3 3 3 4 4 5 6 4 8 11
3 7 8 4 5 6 6 8 8 8 9 8 7 8 9 6 7 6 6 7 9 7 3 5 5 7 7 9 8 7 8 11 9 9 7 6 3 5 8 6 3 4 5 4 6 7 8 10 9 10 8 7 7 7 8 7 7 6 7 6 5 3 2 1 1 2 3 4 4 4 5 5 5 8
7 8 3 2 3 5 6 6 7 8 8 6 7 5 5 6 7 6 4 4 7 10 8 6 7 5 7 6 5 7 5 5 2 5 6 9 6 6 6 7 9 6 6 7 5 4 4 3 5 8 7 8 8 9 8 8 7 7 7 6 5 4 2 1 1 2 3 4 4 5 6 6 6 6
7 4 6 7 5 4 6 8 8 7 9 9 7 5 6 8 8 7 6 4 4 7 6 5 5 6 8 8 8 7 6 8 10 7 6 6 7 7 7 4 4 9 9 6 5 4 4 5 5 5 4 4 7 6 7 6 9 9 8 8 8 7 6 5 3 2 1 2 3 4 5 5 6 5
6 5 3 5 13 11 11 9 8 9 11 10 9 10 7 7 6 7 8 9 8 7 7 8 7 7 8 8 9 8 7 9 5 6 6 7 6 6 5 2 2 3 5 7 5 4 5 5 5 5 5 4 5 5 5 5 7 9 11 11 10 9 8 7 6 5 4 3 3 2 2 3 4 4
3 3 2 3 2 4 7 8 6 6 11 12 10 12 11 7 9 7 7 8 8 8 8 7 7 7 8 8 10 9 10 6 9 10 9 7 8 8 8 5 0 4 6 4 4 3 4 6 6 5 5 5 5 5 6 11 12 12 12 11 10 9 8 7 6 5 5 4 4 3 2 1 2 2
4 5 3 2 4 2 4 7 8 10 10 8 7 6 7 6 4 6 5 5 7 8 8 7 8 8 8 7 8 8 6 7 7 7 8 7 10 8 7 5 5 3 8 6 6 5 4 6 8 7 5 5 5 6 10 12 13 13 12 11 10 9 8 7 6 6 6 6 5 5 4 3 2 1
4 3 3 3 5 5 11 8 9 11 12 12 12 11 11 11 7 9 6 5 5 6 8 7 4 2 3 6 3 3 6 4 8 6 5 5 7 6 7 3 3 3 7 9 7 6 2 2 7 8 4 6 6 7 9 13 14 13 12 12 11 10 9 8 8 9 8 8 8 7 6 5 4 3
4 4 2 4 6 5 7 7 9 8 8 7 7 7 6 7 9 10 11 11 14 10 7 7 6 3 4 4 2 1 3 8 8 8 6 6 8 8 7 6 6 3 3 10 7 5 3 3 8 8 4 5 6 5 8 13 13 13 12 12 11 10 10 10 10 10 10 10 9 9 8 7 7 6
11 9 7 7 6 5 5 4 4 9 8 7 8 8 9 9 8 8 8 6 7 10 9 10 8 6 7 6 5 4 4 6 5 7 8 9 9 9 6 6 6 7 6 6 7 5 5 3 8 6 6 5 5 4 5 9 12 12 12 12 11 10 11 11 11 10 10 11 11 10 9 8 8 7
11 9 8 7 6 5 4 5 8 10 7 7 12 11 10 11 11 11 8 12 12 11 10 10 9 8 8 9 8 6 5 6 7 9 9 9 8 9 8 5 0 4 1 1 6 7 7 5 9 7 5 5 6 3 3 4 10 12 12 11 11 11 11 11 11 11 11 11 11 10 9 8 8 7
12 13 10 8 7 7 7 9 12 14 8 5 12 12 12 10 11 10 9 15 18 18 18 16 15 15 16 16 15 16 14 7 6 8 8 8 9 9 7 4 3 1 1 3 2 10 10 7 9 8 5 4 5 4 3 2 4 8 10 11 11 11 11 11 11 11 11 11 11 11 10 9 8 8
12 17 25 17 8 10 9 14 14 11 7 6 5 12 13 12 12 8 6 8 9 14 15 16 16 16 15 16 17 17 16 15 8 6 8 6 6 7 8 6 2 1 1 1 2 7 9 9 8 10 6 5 2 2 2 3 2 3 3 7 11 11 11 10 10 10 10 10 10 10 9 7 5 4
12 13 17 23 16 14 17 22 19 17 10 6 6 8 11 11 10 6 5 7 8 7 9 9 10 12 12 11 10 11 17 16 12 7 3 3 6 7 6 7 6 4 1 1 1 7 9 11 9 12 8 4 2 1 2 3 2 2 2 4 5 8 8 8 9 10 10 10 8 8 7 6 5 4
13 13 14 15 20 21 25 23 23 21 19 11 9 8 8 9 9 2 5 7 8 9 10 9 9 9 8 9 9 9 10 9 8 7 5 2 4 7 6 5 3 4 2 1 0 7 7 10 10 7 8 10 5 4 3 3 3 3 2 4 4 4 5 5 4 6 10 10 9 8 7 6 6 6
12 12 12 11 17 21 24 25 25 23 20 17 13 11 9 7 7 8 7 8 10 9 9 9 9 8 8 8 8 8 8 7 7 8 8 7 4 5 8 7 5 5 1 3 1 5 5 8 9 6 4 4 6 7 4 3 3 4 4 5 5 3 2 2 3 3 4 7 7 7 6 6 6 6
11 10 10 9 15 23 24 24 24 23 20 19 13 14 16 19 18 10 7 6 7 8 8 8 8 8 8 8 8 8 7 7 7 8 8 8 8 8 6 5 7 5 2 4 3 5 6 4 5 8 7 7 6 7 7 4 4 6 4 4 5 6 5 5 4 3 3 3 4 5 6 8 6 7
9 8 9 11 19 21 23 23 23 22 21 17 16 20 19 19 19 13 8 8 8 8 8 8 8 7 7 7 7 7 7 7 7 7 8 9 10 10 9 8 5 5 3 5 6 6 6 4 1 7 8 9 10 6 6 6 3 1 3 3 4 4 5 5 4 5 5 5 3 3 5 5 5 4
10 10 11 13 19 20 20 20 20 21 18 15 19 19 19 18 15 10 9 8 8 8 8 8 7 6 5 6 6 6 6 6 6 7 8 9 9 8 6 7 7 6 7 7 7 6 7 6 4 4 10 11 11 9 7 3 5 5 5 2 1 3 4 4 4 3 4 5 3 2 3 1 1 1
9 12 16 18 17 17 17 18 17 15 17 19 19 19 18 15 10 9 9 9 9 9 8 7 6 6 6 5 4 5 5 5 5 4 5 6 5 6 7 7 6 6 5 5 6 6 6 7 7 7 8 7 9 7 7 7 6 4 5 5 1 2 2 3 4 3 2 2 6 5 6 5 2 0
16 16 16 17 17 16 14 12 11 11 12 17 17 17 14 10 9 7 8 8 8 7 6 6 7 6 5 5 3 4 5 6 5 4 3 4 5 5 6 7 6 5 4 4 5 6 6 7 7 9 9 7 8 8 7 6 3 4 3 4 2 2 6 3 2 4 3 2 0 3 3 3 2 3
10 12 12 11 13 13 16 15 14 13 13 12 11 10 9 8 7 7 7 6 5 5 5 5 5 4 5 5 6 6 5 4 1 1 1 1 2 3 3 5 4 4 4 4 5 6 6 6 5 6 9 7 6 8 7 6 6 2 4 6 8 4 2 6 5 4 5 4 5 5 5 5 5 3
8 8 9 11 9 9 10 10 9 9 9 9 9 8 8 8 7 8 9 9 7 6 6 5 4 4 3 2 2 3 3 3 1 2 3 3 2 2 3 4 3 2 3 4 5 5 6 6 7 7 6 5 6 4 4 6 8 8 6 5 6 4 4 5 4 5 4 6 7 6 4 5 6 5
9 9 10 10 10 9 9 8 9 8 8 8 7 8 7 7 7 7 7 7 6 5 5 5 5 5 3 3 2 3 3 3 2 0 3 1 5 3 1 6 5 4 4 3 3 5 6 8 8 8 7 6 4 6 8 8 6 6 7 5 6 5 4 4 4 5 3 7 6 5 5 3 3 6
9 8 8 8 8 8 8 8 8 7 7 7 7 7 6 7 6 6 6 5 4 4 4 5 5 6 4 4 5 5 4 4 2 3 4 3 3 6 4 5 4 4 5 5 4 5 6 6 7 8 9 9 9 7 7 9 6 5 5 6 5 5 3 3 5 4 4 6 6 6 4 4 4 4
9 8 8 8 8 7 7 7 7 6 6 6 6 7 7 7 7 6 6 6 4 5 4 5 4 4 5 3 4 6 4 4 4 4 4 3 4 4 6 5 5 5 4 4 3 4 6 6 6 7 6 6 8 8 9 5 8 5 5 5 5 5 4 3 4 5 4 4 4 5 5 6 4 2
8 7 8 8 8 8 8 7 7 8 7 7 6 6 7 7 7 7 7 6 6 5 5 5 4 5 4 4 4 3 3 4 5 5 4 5 4 4 3 1 2 3 2 2 4 2 4 5 5 6 6 4 5 4 4 9 6 5 7 3 2 3 3 3 3 4 6 6 4 5 5 4 3 4
7 7 7 7 7 7 7 6 6 6 6 7 7 7 6 6 6 6 6 5 7 6 5 4 5 4 4 4 4 5 5 6 3 4 4 5 5 5 4 4 7 6 6 4 4 4 4 5 5 7 7 6 7 6 2 2 8 7 8 7 2 1 3 3 5 6 4 4 6 6 4 4 2 2
7 7 7 6 6 5 5 5 5 5 6 6 6 6 6 5 4 5 5 6 6 6 6 6 4 4 4 3 4 4 5 3 3 5 4 4 5 5 4 5 5 6 6 5 5 5 4 5 6 6 7 7 7 6 5 1 2 4 4 5 6 2 3 6 5 4 3 2 4 1 3 6 3 1
7 8 8 8 8 7 7 8 8 8 7 7 6 6 5 5 6 6 6 6 5 6 7 6 4 4 3 4 3 2 1 4 5 3 4 4 4 4 4 5 6 4 6 6 5 5 5 5 5 5 7 7 7 7 7 5 3 1 4 1 7 4 2 4 3 1 3 3 2 1 1 1 3 2
7 7 6 7 7 7 7 7 7 6 7 6 6 7 7 6 6 6 7 7 7 6 6 7 6 6 6 4 3 4 2 3 5 3 3 4 4 5 4 4 6 6 5 5 5 4 5 5 4 6 5 6 4 4 7 6 3 1 1 1 7 7 5 4 3 2 0 0 0 3 2 4 3 3
7 7 7 6 6 6 6 6 5 6 6 6 6 6 6 6 6 6 6 7 6 6 6 7 7 7 6 6 2 2 3 2 4 5 4 5 5 5 6 6 4 5 7 4 4 4 4 4 5 7 6 5 5 7 7 6 4 2 1 1 4 2 3 4 4 4 1 1 3 2 1 0 0 1
6 6 5 6 6 6 6 6 6 6 6 6 6 6 6 5 5 7 8 7 7 6 7 7 7 7 7 7 4 5 4 5 6 5 4 4 5 5 6 5 5 3 6 5 5 5 2 1 3 5 4 6 6 5 5 7 5 3 2 3 5 6 6 4 3 4 7 4 2 1 0 2 1 1
6 5 5 5 5 6 5 4 4 4 4 6 6 5 6 7 7 7 7 7 6 6 7 7 6 6 7 7 6 3 4 4 4 5 4 4 5 4 4 4 3 2 3 3 2 1 0 2 4 6 6 5 2 4 5 6 5 5 3 1 3 3 3 3 3 2 2 5 7 5 3 3 2 1
6 6 5 5 6 5 5 6 5 5 5 6 5 5 5 6 6 5 5 6 6 5 6 7 7 6 6 7 6 5 6 5 5 5 5 3 3 2 4 4 4 4 3 3 3 2 1 3 3 6 5 3 2 5 6 5 5 5 6 3 1 3 2 1 3 4 4 7 5 4 7 7 7 4
6 5 5 4 4 4 4 5 6 6 6 6 7 6 6 5 6 6 4 5 5 6 6 6 7 7 6 6 5 5 4 5 5 5 4 5 4 4 3 3 4 4 3 2 5 3 3 2 1 3 4 2 1 4 5 6 6 5 2 1 1 1 1 0 2 4 4 6 6 6 6 6 6 4
Wind_Direction
201 197 185 185 187 192 192 196 189 173 159 162 163 166 165 164 155 163 174 192 173 196 182 180 172 152 149 148 148 144 152 151 150 146 146 150 156 178 179 182 182 185 179 167 160 153 154 152 149 146 145 141 139 146 145 141 134 130 117 106 107 106 109 119 126 121 118 111 106 106 109 108 107 103
219 209 192 176 188 188 182 185 173 163 158 148 164 165 161 156 164 167 169 179 187 170 188 167 151 143 144 143 146 149 149 157 151 148 146 150 160 172 173 173 173 163 160 156 152 151 153 155 153 150 149 149 148 151 150 145 145 143 137 130 126 125 125 126 126 129 126 127 130 131 127 120 114 106
215 220 198 187 186 182 183 170 165 157 159 161 160 173 165 163 161 154 149 147 211 178 169 155 151 148 149 149 147 147 149 164 155 148 148 153 155 156 162 160 156 155 153 150 150 151 154 156 155 155 154 151 148 153 154 152 155 164 151 138 141 138 137 136 138 142 141 141 142 141 136 128 117 105
211 212 202 192 187 177 163 175 169 160 170 157 165 167 173 151 171 151 148 160 168 168 152 151 151 150 149 151 147 145 153 167 161 149 148 148 147 145 152 156 155 154 151 153 155 153 153 157 158 158 157 153 154 159 160 160 166 160 144 151 151 148 147 150 154 160 152 152 151 151 147 139 133 120
206 218 200 192 184 176 168 176 173 168 173 156 191 179 158 162 181 161 150 158 155 164 201 152 155 156 147 155 152 148 156 167 161 148 146 151 151 145 148 155 159 156 157 159 158 154 156 160 161 157 157 157 161 162 163 165 168 150 151 154 157 153 157 161 171 175 160 163 164 161 165 155 154 152
190 191 192 191 186 185 186 182 182 181 180 169 185 180 173 171 184 174 136 132 146 199 175 159 153 158 160 149 162 156 162 169 151 147 154 163 159 152 148 150 170 169 162 163 159 158 161 165 161 158 160 160 162 162 164 167 158 146 152 157 161 164 167 175 182 182 168 172 171 172 179 171 172 176
183 185 191 193 182 186 191 195 193 178 187 150 84 59 33 134 69 10 332 151 162 168 173 161 156 163 161 156 168 168 167 162 160 153 163 165 168 161 157 160 165 180 169 167 164 164 166 169 164 164 165 163 162 160 161 166 158 153 160 163 170 176 179 183 183 190 202 183 179 180 187 181 184 190
185 185 181 185 179 185 188 189 162 54 60 73 139 160 161 122 134 167 191 198 183 163 149 169 158 164 151 160 157 156 152 155 165 169 164 166 169 166 171 167 170 180 178 171 170 169 171 173 169 170 167 162 161 164 169 171 166 152 156 167 176 178 181 181 185 195 218 245 209 197 194 193 196 204
193 161 153 169 178 179 178 135 130 133 134 150 168 130 110 157 158 123 106 50 310 170 151 152 157 146 143 156 153 152 150 157 162 164 166 172 175 170 178 176 177 170 178 176 174 173 174 175 174 172 169 166 168 170 169 163 152 150 152 156 158 161 166 177 186 208 225 241 263 261 224 201 211 220
47 136 176 189 183 179 176 145 148 152 139 147 162 136 171 190 125 152 121 114 118 335 294 151 137 136 144 146 161 169 158 158 165 166 177 172 169 160 161 181 161 148 165 174 180 180 179 181 178 174 175 173 170 160 144 137 135 138 136 133 140 144 165 182 199 218 237 255 272 276 294 286 224 228
111 184 202 186 188 182 167 164 171 148 147 174 169 163 177 157 156 162 165 134 147 142 101 303 150 145 153 153 163 182 177 169 163 164 161 182 173 157 163 149 131 158 168 176 180 187 186 179 179 182 166 143 123 121 124 122 125 127 129 140 139 134 125 146 197 226 231 238 241 249 264 270 277 260
185 206 159 159 214 185 174 163 159 160 150 154 172 163 141 149 146 153 131 115 139 155 167 209 169 158 143 160 158 159 154 139 110 171 160 175 165 171 179 171 159 174 167 177 182 187 177 154 107 97 108 123 126 125 128 139 138 124 118 112 114 120 123 157 225 235 241 240 236 235 234 238 241 259
199 193 160 172 210 228 157 155 171 157 148 156 161 151 149 165 149 130 126 138 206 163 172 200 173 147 148 163 154 157 167 171 184 190 173 166 166 163 166 196 189 166 175 181 166 170 141 125 143 135 120 136 134 141 124 99 101 107 104 102 102 100 94 89 74 52 335 278 254 242 237 234 235 239
167 213 193 161 176 195 158 156 167 150 155 166 161 161 172 163 146 153 158 168 196 171 182 187 162 154 161 160 170 167 184 191 158 160 163 147 164 142 152 130 208 179 154 155 155 146 141 136 141 152 147 148 136 129 104 126 124 117 116 110 103 97 90 85 75 67 52 34 359 309 279 254 246 244
127 180 62 34 101 155 159 158 154 137 153 160 158 155 166 169 159 167 166 178 188 178 184 168 154 162 163 164 168 176 185 173 168 177 174 154 146 153 147 175 332 146 131 116 104 101 154 142 115 86 96 116 105 100 116 127 119 115 107 104 100 98 95 93 89 83 72 68 56 42 21 333 274 248
99 45 23 128 119 96 100 98 94 72 79 101 105 118 114 157 138 122 169 159 151 163 162 155 168 161 168 165 157 168 148 161 168 169 156 152 162 160 157 145 158 192 149 127 108 86 29 95 106 96 91 99 111 124 132 121 114 109 108 108 109 105 102 96 93 89 81 75 70 61 60 49 48 36
75 73 100 49 57 79 87 86 91 104 102 98 96 90 75 55 70 129 144 139 130 137 124 134 116 109 152 127 153 166 161 147 117 119 109 125 139 135 120 140 125 79 133 111 108 103 49 71 106 101 81 98 97 107 118 122 120 120 122 121 116 115 116 117 106 92 83 75 68 65 62 58 52 50
82 62 33 84 74 71 85 100 108 104 102 103 99 78 64 69 37 30 60 71 75 66 80 86 97 38 53 74 48 2 145 117 129 117 116 120 120 123 120 116 97 53 107 128 123 99 88 93 106 103 99 104 110 120 135 130 124 123 122 116 117 117 115 107 97 89 84 79 73 68 67 68 71 75
27 30 48 60 56 48 88 105 116 111 100 102 89 78 70 61 59 45 32 23 59 88 96 92 80 65 65 65 22 16 53 100 117 132 142 134 116 99 76 61 76 60 22 112 112 127 140 172 107 113 126 116 95 99 123 124 125 124 120 118 114 115 109 103 98 93 86 79 73 68 67 73 83 90
20 19 26 40 46 55 40 28 41 82 106 114 96 89 81 75 68 58 41 68 74 82 85 88 87 80 75 76 65 38 65 82 94 88 92 99 105 114 116 132 7 93 92 43 123 121 145 159 124 130 117 112 107 97 114 144 131 127 125 123 123 115 108 103 101 99 94 88 83 78 74 72 73 83
35 28 25 34 40 33 17 21 38 62 29 76 99 96 88 83 78 70 54 63 74 80 83 86 87 81 70 63 57 49 46 68 116 118 107 125 134 127 122 134 102 96 322 19 85 131 138 157 132 126 121 113 117 131 137 110 121 130 132 130 125 118 109 103 99 99 99 95 92 88 84 83 83 78
46 40 40 43 47 52 41 55 55 49 74 57 82 103 97 88 87 82 82 81 75 83 81 73 68 63 61 60 56 50 48 43 37 106 135 161 134 136 140 148 136 180 1 65 131 126 140 138 132 118 108 89 76 114 140 136 120 116 134 132 124 115 111 111 109 108 107 107 107 110 114 118 120 112
42 39 36 35 37 60 58 54 49 43 44 66 42 71 91 90 89 102 104 89 87 80 70 58 57 48 46 48 52 48 47 45 45 48 69 138 146 149 147 135 141 100 343 287 154 123 139 140 157 137 134 125 115 184 172 154 169 188 168 117 103 108 115 119 123 123 122 122 125 127 129 141 127 107
46 43 37 31 29 50 61 58 54 47 50 52 31 38 65 91 96 107 73 83 91 85 83 77 68 66 57 55 48 45 40 39 39 39 35 41 148 143 143 128 102 128 185 271 74 110 141 150 156 183 149 142 165 179 164 211 201 198 176 129 113 120 117 116 109 133 133 132 131 130 124 109 97 99
54 47 42 40 27 48 56 58 55 51 45 53 55 42 48 45 58 56 64 59 68 78 76 71 65 58 53 50 49 44 41 36 29 31 28 32 37 119 131 124 104 98 151 283 260 125 131 154 155 161 115 105 122 140 186 188 203 201 202 163 145 188 178 181 150 144 119 115 118 117 112 115 107 116
59 52 50 46 43 47 52 56 56 51 50 49 56 46 44 43 41 44 52 61 66 74 74 76 69 62 55 50 43 41 42 35 36 35 36 37 50 48 48 81 105 107 69 337 59 111 111 92 153 141 139 125 132 135 138 166 183 194 174 178 169 181 180 178 176 174 164 149 150 152 147 136 127 128
59 64 65 50 48 52 55 55 54 54 46 48 48 47 43 43 45 41 39 42 52 60 67 68 71 63 61 58 49 48 43 30 29 34 39 44 49 47 39 39 51 84 88 58 59 73 85 89 33 125 130 129 127 119 121 132 139 127 98 143 148 159 167 145 152 165 161 165 190 131 79 59 95 100
59 56 55 61 60 57 53 54 56 56 55 53 49 48 46 46 45 46 42 47 53 61 60 61 59 57 51 57 59 55 49 45 47 48 48 45 57 65 56 52 55 51 58 58 60 68 86 100 74 78 126 136 133 135 126 76 126 157 150 227 201 170 156 136 148 147 137 139 145 114 104 123 331 68
59 61 59 56 53 54 55 54 51 48 47 49 51 49 48 48 47 43 47 45 49 49 46 49 48 45 43 56 59 56 63 52 39 41 54 64 58 65 65 56 48 42 48 59 62 65 76 91 98 95 96 105 114 121 123 143 152 178 167 149 166 244 204 149 152 167 203 149 152 167 175 171 179 78
58 55 56 56 55 55 52 51 48 47 42 42 43 45 47 51 49 45 47 44 50 52 48 45 40 29 23 18 9 52 62 60 44 23 47 69 56 53 71 67 40 24 34 53 73 75 77 79 90 96 94 97 115 123 133 133 142 187 157 138 183 29 26 13 11 359 19 306 130 186 168 130 108 120
56 54 56 60 61 63 58 57 54 51 40 40 39 39 38 41 42 43 45 47 49 49 50 48 38 27 19 31 37 18 29 47 353 353 341 78 113 63 75 92 76 55 18 28 58 75 81 81 77 93 103 106 106 140 151 137 143 110 46 55 70 104 317 34 26 6 340 48 67 40 52 68 79 85
46 50 49 49 47 50 51 50 50 47 46 46 43 40 38 36 34 34 36 39 39 27 28 26 17 3 4 4 353 53 84 114 198 278 227 207 181 142 136 82 95 83 59 52 51 53 75 81 82 73 83 112 123 134 96 88 96 97 89 79 81 70 48 56 24 7 357 69 66 60 31 78 111 123
45 46 46 40 39 38 43 43 44 39 43 43 42 44 39 35 34 33 37 43 31 19 31 33 30 19 22 41 73 96 66 29 360 356 98 122 162 210 103 133 163 155 140 119 91 68 68 71 72 83 81 66 66 103 102 87 71 82 100 84 76 57 26 21 43 17 6 67 74 78 57 22 116 151
60 49 54 43 42 37 38 42 40 37 36 36 33 27 34 41 43 38 39 36 32 36 46 44 43 28 32 32 25 45 33 349 352 36 73 63 121 145 154 152 187 201 166 162 144 118 103 90 84 70 69 63 56 58 95 110 107 100 96 106 91 80 26 26 27 34 59 101 100 71 50 20 358 2
51 47 48 39 39 38 43 42 37 33 35 29 34 23 15 19 23 23 27 12 21 33 40 35 41 31 38 32 27 45 16 9 341 4 14 68 66 131 165 167 189 212 190 152 149 159 132 124 105 89 72 69 66 49 39 76 120 115 109 76 92 84 41 22 51 40 59 36 65 81 74 62 21 353
51 52 54 48 44 45 46 38 39 38 39 28 26 25 28 15 8 9 4 345 2 8 22 14 16 12 6 6 17 16 25 23 17 4 10 11 38 44 51 68 197 221 212 174 167 121 90 93 107 111 107 73 78 54 33 24 54 132 90 87 49 79 44 54 45 62 57 63 61 93 81 72 32 344
52 43 50 53 53 54 54 48 49 46 52 54 45 43 43 28 1 7 354 4 19 2 354 356 349 346 357 6 360 347 356 26 0 347 2 1 46 59 64 56 58 60 74 55 102 128 118 111 111 115 109 102 104 111 90 311 23 33 124 125 117 84 98 57 54 43 26 72 60 80 105 101 62 326
50 40 40 39 45 47 52 49 46 45 48 59 62 48 35 25 8 5 355 27 2 2 351 352 348 359 341 338 342 328 353 353 30 35 28 42 59 45 53 79 74 71 75 64 67 67 72 105 126 144 133 132 133 134 129 9 6 4 8 121 118 147 80 74 60 74 28 22 103 169 121 79 133 188
48 43 36 34 28 28 27 23 35 34 29 36 46 47 35 19 8 4 13 4 1 5 354 351 342 338 341 331 328 316 102 77 64 61 67 68 75 79 50 79 89 63 77 72 59 63 71 84 107 136 140 142 147 174 162 135 118 167 332 145 129 106 118 129 130 146 97 54 11 349 23 175 130 89
46 49 45 42 33 33 37 39 37 36 38 30 28 16 21 13 11 9 6 358 360 359 5 359 341 340 343 342 63 63 36 112 128 116 97 81 76 79 79 95 113 114 89 90 92 101 98 108 114 124 138 150 175 158 138 126 117 353 358 81 141 143 174 133 144 135 8 274 126 60 7 2 30 325
55 49 40 43 38 34 36 38 40 37 30 21 20 16 21 22 20 20 29 20 19 18 15 11 7 359 347 332 320 145 101 37 47 51 38 56 55 67 76 87 85 107 109 98 94 87 108 150 164 138 111 102 100 97 84 82 109 152 123 248 285 276 212 173 153 145 159 180 112 121 118 49 14 353
61 59 48 48 43 27 37 43 39 40 22 16 17 15 9 19 12 28 31 24 24 19 16 14 6 6 359 350 29 88 104 101 85 65 62 73 69 46 60 74 101 114 108 127 131 147 200 65 102 83 76 102 96 93 140 159 161 205 249 289 297 298 310 16 72 154 160 142 117 97 8 357 33 4
50 53 53 44 40 34 33 37 47 44 19 8 13 15 24 16 14 20 26 25 17 19 13 3 4 9 7 6 349 12 78 77 91 91 86 94 97 85 77 82 99 120 131 149 205 187 318 32 54 65 62 67 91 102 140 179 176 176 208 263 265 311 337 67 135 149 198 194 164 160 161 156 123 15
46 45 43 47 45 33 26 25 11 13 20 26 18 22 31 31 16 9 23 31 24 10 6 7 357 11 8 354 350 26 41 43 52 58 50 37 49 82 90 71 89 99 96 105 82 27 348 53 76 109 94 94 98 91 117 120 152 183 195 225 248 58 80 356 358 6 337 306 280 187 168 164 190 169
49 58 58 39 36 26 31 38 47 31 28 20 21 13 5 17 16 5 7 26 23 11 19 10 357 354 3 1 11 26 26 45 56 48 45 44 33 21 53 83 76 68 70 98 98 43 13 26 29 64 74 91 113 137 162 145 164 174 196 125 118 77 178 20 34 353 342 331 288 259 216 194 221 248